Visalia, CA

2:02 AM PST on December 15, 2019 (GMT -0800)
Visalia Municipal

Weather History for KVIS - November, 2019

Change the Weather History Date:

Saturday, November 16, 2019

  Actual Average Record
Temperature  
Mean Temperature 56 °F -  
Max Temperature 69 °F 64 °F 78 °F (1979)
Min Temperature 42 °F 42 °F 29 °F (1958)
Degree Days  
Heating Degree Days 10    
Growing Degree Days 6 (Base 50)    
Moisture  
Dew Point 46 °F    
Average Humidity 85    
Maximum Humidity 100    
Minimum Humidity 52    
Precipitation  
Precipitation 0.00 in - - ()
Sea Level Pressure  
Sea Level Pressure 30.16 in    
Wind  
Wind Speed 2 mph ()    
Max Wind Speed 6 mph    
Max Gust Speed -    
Visibility 3.7 miles    
Events Rain    
Averages and records for this station are not official NWS values.
T = Trace of Precipitation, MM = Missing Value Source: Averaged Metar Reports

Daily Weather History Graph

Daily Weather History Graph

Search for Another Location

Airport or City:

Astronomy

Nov. 16, 2019 Rise Set
Actual Time 6:35 AM PST 4:48 PM PST
Civil Twilight 6:08 AM PST 5:16 PM PST
Nautical Twilight 5:36 AM PST 5:47 PM PST
Astronomical Twilight 5:06 AM PST 6:17 PM PST
Moon 8:29 PM PST (11/16) 10:30 AM PST (11/16)
Length of Visible Light 11h 08m
Length of Day
10h 13m
Waning Gibbous, 81% of the Moon is Illuminated
Nov 16
Waning Gibbous
Nov 19
Last Quarter
Nov 26
New
Dec 3
First Quarter
Dec 11
Full

Hourly Weather History & Observations

Time (PST) Temp. Windchill Dew Point Humidity Pressure Visibility Wind Dir Wind Speed Gust Speed Precip Events Conditions
12:37 AM 46.4 °F 43.5 °F 44.6 °F 93% 30.16 in 2.0 mi East 5.8 mph - 0.00 in Rain Light Rain
12:48 AM 48.2 °F - 46.4 °F 93% 30.16 in 1.5 mi East 5.8 mph - 0.00 in Rain Light Rain
12:56 AM 48.0 °F - 46.0 °F 93% 30.19 in 2.0 mi East 5.8 mph - 0.00 in Rain Light Rain
1:20 AM 48.2 °F - 46.4 °F 93% 30.16 in 2.5 mi East 3.5 mph - 0.00 in Rain Light Rain
1:29 AM 48.2 °F - 46.4 °F 93% 30.16 in 3.0 mi Calm Calm - 0.00 in   Clear
1:56 AM 48.0 °F - 45.0 °F 89% 30.19 in 3.0 mi Calm Calm - 0.00 in   Clear
2:12 AM 46.4 °F 45.2 °F 44.6 °F 93% 30.16 in 2.0 mi East 3.5 mph - N/A   Clear
2:26 AM 46.4 °F 45.2 °F 44.6 °F 93% 30.16 in 3.0 mi East 3.5 mph - N/A   Clear
2:56 AM 45.0 °F - 43.0 °F 93% 30.19 in 3.0 mi Calm Calm - N/A   Clear
3:28 AM 44.6 °F - 42.8 °F 93% 30.15 in 2.5 mi Calm Calm - N/A   Clear
4:06 AM 44.6 °F - 42.8 °F 93% 30.15 in 3.0 mi Calm Calm - N/A   Clear
4:36 AM 42.8 °F 41.1 °F 41.0 °F 93% 30.15 in 2.0 mi ESE 3.5 mph - N/A   Clear
4:44 AM 42.8 °F 41.1 °F 41.0 °F 93% 30.15 in 1.5 mi SE 3.5 mph - N/A   Clear
4:56 AM 44.1 °F 42.5 °F 43.0 °F 96% 30.18 in 2.5 mi ESE 3.5 mph - N/A   Clear
5:16 AM 44.6 °F - 42.8 °F 93% 30.16 in 3.0 mi Calm Calm - N/A   Clear
5:34 AM 44.6 °F - 44.6 °F 100% 30.16 in 2.0 mi Calm Calm - N/A   Clear
5:56 AM 44.1 °F - 44.1 °F 100% 30.20 in 1.5 mi Calm Calm - N/A   Clear
6:08 AM 44.6 °F - 44.6 °F 100% 30.17 in 2.5 mi Calm Calm - N/A   Clear
6:15 AM 44.6 °F 43.1 °F 44.6 °F 100% 30.17 in 3.0 mi SSE 3.5 mph - N/A   Clear
6:32 AM 42.8 °F - 42.8 °F 100% 30.18 in 2.0 mi Calm Calm - N/A   Clear
6:40 AM 44.6 °F - 42.8 °F 93% 30.18 in 1.5 mi Calm Calm - N/A   Clear
6:56 AM 44.1 °F - 43.0 °F 96% 30.22 in 1.8 mi Calm Calm - N/A   Clear
7:13 AM 44.6 °F - 42.8 °F 93% 30.19 in 1.0 mi Calm Calm - N/A   Clear
7:18 AM 42.8 °F 41.1 °F 42.8 °F 100% 30.19 in 2.5 mi East 3.5 mph - N/A   Clear
7:56 AM 48.0 °F - 46.0 °F 93% 30.22 in 3.0 mi Calm Calm - N/A   Clear
8:26 AM 51.8 °F - 48.2 °F 88% 30.19 in 2.5 mi Variable 3.5 mph - N/A   Clear
8:37 AM 53.6 °F - 48.2 °F 82% 30.19 in 4.0 mi Calm Calm - N/A   Clear
8:56 AM 55.0 °F - 48.9 °F 80% 30.22 in 5.0 mi SE 4.6 mph - N/A   Haze
9:56 AM 60.1 °F - 50.0 °F 69% 30.22 in 7.0 mi SSE 4.6 mph - N/A   Clear
10:56 AM 63.0 °F - 51.1 °F 65% 30.20 in 7.0 mi Calm Calm - N/A   Clear
11:56 AM 64.9 °F - 50.0 °F 58% 30.16 in 7.0 mi West 4.6 mph - N/A   Clear
12:56 PM 66.9 °F - 51.1 °F 57% 30.14 in 7.0 mi Calm Calm - N/A   Clear
1:56 PM 68.0 °F - 50.0 °F 52% 30.12 in 8.0 mi NNW 4.6 mph - N/A   Clear
2:56 PM 69.1 °F - 51.1 °F 53% 30.12 in 8.0 mi Variable 4.6 mph - N/A   Clear
3:56 PM 68.0 °F - 50.0 °F 52% 30.13 in 10.0 mi Calm Calm - N/A   Clear
4:56 PM 64.0 °F - 48.9 °F 58% 30.13 in 10.0 mi Calm Calm - N/A   Clear
5:56 PM 57.9 °F - 50.0 °F 75% 30.14 in 8.0 mi Calm Calm - N/A   Clear
6:56 PM 55.9 °F - 48.0 °F 75% 30.14 in 7.0 mi Calm Calm - N/A   Clear
7:56 PM 53.1 °F - 48.0 °F 83% 30.15 in 3.0 mi Calm Calm - N/A   Haze
8:09 PM 53.6 °F - 46.4 °F 77% 30.12 in 2.5 mi Calm Calm - N/A   Haze
8:22 PM 53.6 °F - 46.4 °F 77% 30.13 in 5.0 mi Calm Calm - N/A   Haze
8:45 PM 51.8 °F - 46.4 °F 82% 30.13 in 2.5 mi Calm Calm - N/A   Haze
8:56 PM 52.0 °F - 46.9 °F 83% 30.16 in 4.0 mi Calm Calm - N/A   Haze
9:12 PM 51.8 °F - 48.2 °F 88% 30.13 in 1.8 mi ENE 5.8 mph - N/A   Clear
9:24 PM 51.8 °F - 46.4 °F 82% 30.13 in 2.0 mi ENE 5.8 mph - N/A   Haze
9:41 PM 51.8 °F - 48.2 °F 88% 30.13 in 3.0 mi East 5.8 mph - N/A   Clear
9:56 PM 53.1 °F - 48.9 °F 86% 30.16 in 5.0 mi East 3.5 mph - N/A   Clear
10:13 PM 53.6 °F - 48.2 °F 82% 30.13 in 2.0 mi East 3.5 mph - N/A   Clear
10:21 PM 53.6 °F - 48.2 °F 82% 30.13 in 1.8 mi ESE 4.6 mph - N/A   Clear
10:56 PM 48.0 °F - 45.0 °F 89% 30.16 in 5.0 mi Calm Calm - N/A   Clear
11:56 PM 48.0 °F - 45.0 °F 89% 30.16 in 4.0 mi Calm Calm - N/A   Clear